E23JWE-1 Weather Reports


Display with metric or nautical units.
time (UTC)temp
F
wind
direction
speed
MPH
gust
MPH
rain 1hr
in
rain 24hr
in
rain mn
in
humidity
%
barometer
mb
20260509173012 85 0 0.0 0.0 0.00 0.00 0.00 99 1008.0
20260509165947 84 0 0.0 0.0 0.00 0.00 0.00 99 1009.0
20260509162921 87 0 0.0 0.0 0.00 0.00 0.00 99 1009.0
20260509155855 89 0 0.0 0.0 0.00 0.00 0.00 99 1008.0
20260509152830 89 0 0.0 0.0 0.00 0.00 0.00 99 1008.0
20260509145804 88 0 0.0 0.0 0.00 0.00 0.00 99 1008.0
20260509142739 88 0 0.0 0.0 0.00 0.00 0.00 99 1008.0
20260509135713 89 0 0.0 0.0 0.00 0.00 0.00 99 1007.0
20260509132622 89 0 0.0 0.0 0.00 0.00 0.00 99 1007.0
20260509125530 88 0 0.0 0.0 0.00 0.00 0.00 99 1006.0
20260509122505 88 0 0.0 0.0 0.00 0.00 0.00 99 1006.0
20260509115439 89 0 0.0 0.0 0.00 0.00 0.00 99 1005.0
20260509112404 88 0 0.0 0.0 0.00 0.00 0.00 99 1005.0
20260509105339 89 0 0.0 0.0 0.00 0.00 0.00 99 1005.0
20260509102313 91 0 0.0 0.0 0.00 0.00 0.00 94 1005.0
20260509095248 90 0 0.0 0.0 0.00 0.00 0.00 96 1005.0
20260509092222 90 0 0.0 0.0 0.00 0.00 0.00 96 1005.0
20260509085156 91 0 0.0 0.0 0.00 0.00 0.00 95 1005.0
20260509082105 92 0 0.0 0.0 0.00 0.00 0.00 94 1005.0
20260509075039 91 0 0.0 0.0 0.00 0.00 0.00 95 1006.0
20260509072014 92 0 0.0 0.0 0.00 0.00 0.00 94 1006.0
20260509064948 91 0 0.0 0.0 0.00 0.00 0.00 97 1007.0
20260509061923 91 0 0.0 0.0 0.00 0.00 0.00 99 1007.0
20260509054857 91 0 0.0 0.0 0.00 0.00 0.00 99 1008.0
20260509051832 90 0 0.0 0.0 0.00 0.00 0.00 99 1008.0
20260509044806 90 0 0.0 0.0 0.00 0.00 0.00 99 1009.0
20260509041741 90 0 0.0 0.0 0.00 0.00 0.00 99 1009.0
20260509034715 88 0 0.0 0.0 0.00 0.00 0.00 99 1009.0
20260509031650 88 0 0.0 0.0 0.00 0.00 0.00 99 1010.0
20260509024624 89 0 0.0 0.0 0.00 0.00 0.00 99 1010.0
20260509021559 89 0 0.0 0.0 0.00 0.00 0.00 99 1010.0
20260509014533 89 0 0.0 0.0 0.00 0.00 0.00 99 1010.0
20260509011508 86 0 0.0 0.0 0.00 0.00 0.00 99 1010.0
20260509004442 88 0 0.0 0.0 0.00 0.00 0.00 99 1010.0
20260509001416 89 0 0.0 0.0 0.00 0.00 0.00 99 1009.0
20260508234351 89 0 0.0 0.0 0.00 0.00 0.00 99 1009.0
20260508231325 89 0 0.0 0.0 0.00 0.00 0.00 99 1008.0
20260508224300 88 0 0.0 0.0 0.00 0.00 0.00 99 1008.0
20260508221234 89 0 0.0 0.0 0.00 0.00 0.00 99 1008.0
20260508214208 89 0 0.0 0.0 0.00 0.00 0.00 99 1008.0
20260508211142 89 0 0.0 0.0 0.00 0.00 0.00 99 1008.0
20260508204117 89 0 0.0 0.0 0.00 0.00 0.00 99 1008.0
20260508201051 89 0 0.0 0.0 0.00 0.00 0.00 99 1008.0
20260508194026 89 0 0.0 0.0 0.00 0.00 0.00 99 1007.0
20260508191000 89 0 0.0 0.0 0.00 0.00 0.00 99 1008.0
20260508183935 89 0 0.0 0.0 0.00 0.00 0.00 99 1008.0
20260508180910 89 0 0.0 0.0 0.00 0.00 0.00 99 1008.0